Weather History for Grafton, ND

Change the Weather History Date:

Thursday, January 16, 2014

  Actual Average Record
Temperature  
Mean Temperature 13 °F -  
Max Temperature 26 °F 14 °F 42 °F (1961)
Min Temperature 0 °F -3 °F -35 °F (1977)
Degree Days  
Heating Degree Days 52    
Moisture  
Dew Point -1 °F    
Average Humidity 78    
Maximum Humidity 100    
Minimum Humidity 61    
Precipitation  
Precipitation 0.00 in - - ()
Sea Level Pressure  
Sea Level Pressure 29.85 in    
Wind  
Wind Speed 32 mph (NNW)    
Max Wind Speed 45 mph    
Max Gust Speed 58 mph    
Visibility 5 miles    
Events Rain , Snow    
Averages and records for this station are not official NWS values.
T = Trace of Precipitation, MM = Missing Value Source: NWS Daily Summary

Daily Weather History Graph

Daily Weather History Graph

Search for Another Location

Airport:

Trip Planner

Search our weather history database for the weather conditions in past years. The results will help you decide how hot, cold, wet, or windy it might be!

Date:

Astronomy

Jan. 16, 2014 Rise Set
Actual Time 8:15 AM CST 5:03 PM CST
Civil Twilight 7:39 AM CST 5:39 PM CST
Nautical Twilight 7:00 AM CST 6:18 PM CST
Astronomical Twilight 6:23 AM CST 6:55 PM CST
Moon 6:05 PM CST (1/16) 8:02 AM CST (1/16)
Length of Visible Light 9h 59m
Length of Day
8h 48m
Full, 100% of the Moon is Illuminated
Jan 16
Full
Jan 23
Last Quarter
Jan 30
New
Feb 6
First Quarter
Feb 14
Full

Hourly Weather History & Observations

Time (CST) Temp. Windchill Dew Point Humidity Pressure Visibility Wind Dir Wind Speed Gust Speed Precip Events Conditions
12:15 AM 26.6 °F 10.0 °F 26.6 °F 100% 29.31 in 0.2 mi North 31.1 mph 51.8 mph N/A Rain Light Freezing Rain
12:35 AM 21.2 °F 0.1 °F 19.4 °F 93% 29.35 in 0.2 mi North 43.7 mph 54.1 mph N/A Snow Heavy Snow
12:55 AM 19.4 °F -1.3 °F 17.6 °F 93% 29.36 in 1.0 mi North 38.0 mph 50.6 mph N/A Rain Light Freezing Rain
1:15 AM 19.4 °F -0.6 °F 15.8 °F 86% 29.39 in 1.2 mi North 34.5 mph 44.9 mph N/A Snow Light Snow
1:35 AM 15.8 °F -7.7 °F 14.0 °F 93% 29.40 in 0.2 mi North 44.9 mph 57.5 mph N/A Snow Heavy Snow
1:55 AM 14.0 °F -10.2 °F 12.2 °F 93% 29.41 in 0.2 mi North 44.9 mph 57.5 mph N/A Snow Heavy Snow
2:15 AM 14.0 °F -9.8 °F 10.4 °F 86% 29.43 in 0.5 mi North 42.6 mph 52.9 mph N/A Snow Snow
2:35 AM 14.0 °F -8.5 °F 8.6 °F 79% 29.46 in 1.5 mi North 36.8 mph 48.3 mph N/A Snow Light Snow
2:55 AM 12.2 °F -11.8 °F 8.6 °F 85% 29.49 in 1.8 mi North 40.3 mph 50.6 mph N/A Snow Light Snow
3:15 AM 10.4 °F -12.3 °F 6.8 °F 85% 29.52 in 2.0 mi North 32.2 mph 41.4 mph N/A Snow Light Snow
3:35 AM 10.4 °F -11.4 °F 6.8 °F 85% 29.52 in 2.0 mi North 28.8 mph 40.3 mph N/A Snow Light Snow
3:55 AM 10.4 °F -11.7 °F 6.8 °F 85% 29.54 in 7.0 mi North 29.9 mph 36.8 mph N/A Snow Light Snow
4:15 AM 10.4 °F -12.0 °F 5.0 °F 79% 29.54 in 4.0 mi North 31.1 mph 39.1 mph N/A Snow Light Snow
4:35 AM 8.6 °F -12.7 °F 3.2 °F 79% 29.57 in 7.0 mi NNW 25.3 mph 39.1 mph N/A Rain Light Freezing Rain
4:55 AM 8.6 °F -15.4 °F 1.4 °F 73% 29.57 in 7.0 mi NNW 34.5 mph 41.4 mph N/A Rain Light Freezing Rain
5:15 AM 8.6 °F -16.6 °F 1.4 °F 73% 29.57 in 3.0 mi North 39.1 mph 51.8 mph N/A Rain Light Freezing Rain
5:35 AM 6.8 °F -17.9 °F -0.4 °F 72% 29.61 in 6.0 mi NNW 34.5 mph 46.0 mph N/A Rain Light Freezing Rain
5:55 AM 5.0 °F -19.4 °F -0.4 °F 78% 29.63 in 1.5 mi North 31.1 mph 41.4 mph N/A Rain Light Freezing Rain
6:15 AM 5.0 °F -18.7 °F -0.4 °F 78% 29.65 in 3.0 mi North 28.8 mph 41.4 mph N/A Snow Light Snow
6:35 AM 5.0 °F -20.4 °F -2.2 °F 72% 29.66 in 3.0 mi NNW 34.5 mph 47.2 mph N/A Rain Light Freezing Rain
6:55 AM 3.2 °F -20.7 °F -2.2 °F 78% 29.69 in 5.0 mi NNW 27.6 mph 38.0 mph N/A Rain Light Freezing Rain
7:15 AM 3.2 °F -22.9 °F -2.2 °F 78% 29.69 in 3.0 mi NNW 34.5 mph 43.7 mph N/A Rain Light Freezing Rain
7:35 AM 1.4 °F -26.3 °F -2.2 °F 85% 29.70 in 2.0 mi NNW 38.0 mph 51.8 mph N/A Snow Light Snow
7:55 AM 1.4 °F -26.0 °F -2.2 °F 85% 29.71 in 3.0 mi NNW 36.8 mph 48.3 mph N/A Rain Light Freezing Rain
8:15 AM 1.4 °F -25.3 °F -2.2 °F 85% 29.73 in 2.0 mi NNW 34.5 mph 49.5 mph N/A Rain Light Freezing Rain
8:35 AM 1.4 °F -24.6 °F -2.2 °F 85% 29.75 in 1.2 mi NNW 32.2 mph 40.3 mph N/A Snow Light Snow
8:55 AM 1.4 °F -26.9 °F -2.2 °F 85% 29.76 in 0.5 mi NNW 40.3 mph 51.8 mph N/A Rain Light Freezing Rain
9:15 AM 1.4 °F -25.7 °F -2.2 °F 85% 29.80 in 1.2 mi NNW 35.7 mph 50.6 mph N/A Rain Light Freezing Rain
9:35 AM 1.4 °F -25.0 °F -2.2 °F 85% 29.81 in 0.8 mi NNW 33.4 mph 46.0 mph N/A Rain Light Freezing Rain
9:55 AM 1.4 °F -26.3 °F -2.2 °F 85% 29.83 in 1.5 mi NNW 38.0 mph 47.2 mph N/A Rain Light Freezing Rain
10:15 AM 1.4 °F -23.9 °F -2.2 °F 85% 29.85 in 0.5 mi NNW 29.9 mph 47.2 mph N/A Rain Light Freezing Rain
10:35 AM 1.4 °F -24.3 °F -0.4 °F 92% 29.86 in 0.2 mi NNW 31.1 mph 42.6 mph N/A Snow Heavy Snow
10:55 AM 1.4 °F -23.5 °F -2.2 °F 85% 29.88 in 0.2 mi NNW 28.8 mph 44.9 mph N/A Snow Heavy Snow
11:15 AM 1.4 °F -26.6 °F -0.4 °F 92% 29.88 in 0.2 mi NNW 39.1 mph 48.3 mph N/A Rain Light Freezing Rain
11:35 AM 1.4 °F -26.0 °F -0.4 °F 92% 29.89 in 0.5 mi NNW 36.8 mph 46.0 mph N/A Rain Light Freezing Rain
11:55 AM 1.4 °F -25.0 °F -0.4 °F 92% 29.90 in 0.2 mi North 33.4 mph 42.6 mph N/A Rain Light Freezing Rain
12:15 PM 1.4 °F -24.3 °F -0.4 °F 92% 29.91 in 0.5 mi North 31.1 mph 47.2 mph N/A Rain Light Freezing Rain
12:35 PM 3.2 °F -23.2 °F -0.4 °F 85% 29.91 in 0.5 mi NNW 35.7 mph 46.0 mph N/A Rain Light Freezing Rain
12:55 PM 3.2 °F -22.9 °F -0.4 °F 85% 29.92 in 0.8 mi NNW 34.5 mph 43.7 mph N/A Rain Light Freezing Rain
1:15 PM 3.2 °F -22.2 °F -0.4 °F 85% 29.93 in 1.0 mi NNW 32.2 mph 41.4 mph N/A Rain Light Freezing Rain
1:35 PM 5.0 °F -20.4 °F -0.4 °F 78% 29.93 in 0.8 mi NNW 34.5 mph 42.6 mph N/A Rain Light Freezing Rain
1:55 PM 5.0 °F -19.4 °F -0.4 °F 78% 29.95 in 3.0 mi NNW 31.1 mph 40.3 mph N/A   Overcast
2:55 PM 5.0 °F -19.0 °F -2.2 °F 72% 29.99 in 5.0 mi North 29.9 mph 44.9 mph N/A   Haze
3:15 PM 5.0 °F -18.7 °F -2.2 °F 72% 30.00 in 8.0 mi North 28.8 mph 43.7 mph N/A   Clear
3:35 PM 5.0 °F -19.7 °F -2.2 °F 72% 30.02 in 9.0 mi North 32.2 mph 41.4 mph N/A   Clear
3:55 PM 5.0 °F -18.7 °F -2.2 °F 72% 30.04 in 10.0 mi NNW 28.8 mph 35.7 mph N/A   Clear
4:15 PM 5.0 °F -17.1 °F -2.2 °F 72% 30.05 in 10.0 mi NNW 24.2 mph 36.8 mph N/A   Clear
4:35 PM 5.0 °F -17.5 °F -4.0 °F 66% 30.07 in 10.0 mi NNW 25.3 mph 35.7 mph N/A   Clear
4:55 PM 3.2 °F -19.9 °F -4.0 °F 72% 30.08 in 10.0 mi NNW 25.3 mph 29.9 mph N/A   Clear
5:15 PM 3.2 °F -19.9 °F -4.0 °F 72% 30.09 in 10.0 mi NNW 25.3 mph 31.1 mph N/A   Clear
5:35 PM 1.4 °F -20.5 °F -4.0 °F 78% 30.10 in 10.0 mi NNW 20.7 mph 28.8 mph N/A   Clear
5:55 PM 1.4 °F -21.0 °F -5.8 °F 72% 30.11 in 10.0 mi NNW 21.9 mph 27.6 mph N/A   Clear
6:15 PM 1.4 °F -20.5 °F -5.8 °F 72% 30.12 in 10.0 mi NNW 20.7 mph 33.4 mph N/A   Clear
6:35 PM 1.4 °F -21.0 °F -5.8 °F 72% 30.13 in 10.0 mi NNW 21.9 mph 29.9 mph N/A   Clear
6:55 PM 3.2 °F -19.0 °F -7.6 °F 61% 30.14 in 10.0 mi NNW 23.0 mph 31.1 mph N/A   Clear
7:15 PM 3.2 °F -19.0 °F -7.6 °F 61% 30.14 in 10.0 mi NNW 23.0 mph 29.9 mph N/A   Clear
7:35 PM 3.2 °F -18.6 °F -7.6 °F 61% 30.15 in 10.0 mi NNW 21.9 mph 31.1 mph N/A   Clear
7:55 PM 1.4 °F -21.0 °F -7.6 °F 66% 30.15 in 10.0 mi NNW 21.9 mph - N/A   Clear
8:15 PM 1.4 °F -20.5 °F -7.6 °F 66% 30.15 in 10.0 mi NNW 20.7 mph 28.8 mph N/A   Clear
8:35 PM 1.4 °F -19.9 °F -7.6 °F 66% 30.15 in 10.0 mi NNW 19.6 mph 25.3 mph N/A   Clear
8:55 PM 1.4 °F -19.4 °F -7.6 °F 66% 30.16 in 10.0 mi NNW 18.4 mph 25.3 mph N/A   Clear
9:15 PM 1.4 °F -20.5 °F -7.6 °F 66% 30.16 in 10.0 mi NNW 20.7 mph - N/A   Clear
9:35 PM 1.4 °F -20.5 °F -7.6 °F 66% 30.16 in 10.0 mi NNW 20.7 mph 26.5 mph N/A   Clear
9:55 PM 1.4 °F -21.0 °F -7.6 °F 66% 30.17 in 10.0 mi NNW 21.9 mph 27.6 mph N/A   Clear
10:15 PM 1.4 °F -19.9 °F -7.6 °F 66% 30.17 in 10.0 mi NNW 19.6 mph 26.5 mph N/A   Clear
10:35 PM 1.4 °F -21.0 °F -7.6 °F 66% 30.16 in 10.0 mi NNW 21.9 mph 26.5 mph N/A   Clear
10:55 PM 1.4 °F -19.4 °F -7.6 °F 66% 30.16 in 10.0 mi North 18.4 mph 24.2 mph N/A   Clear
11:15 PM 1.4 °F -18.8 °F -7.6 °F 66% 30.16 in 10.0 mi North 17.3 mph 23.0 mph N/A   Clear
11:35 PM -0.4 °F -20.5 °F -7.6 °F 72% 30.17 in 10.0 mi NNW 16.1 mph - N/A   Clear
11:55 PM -0.4 °F -20.5 °F -7.6 °F 72% 30.16 in 10.0 mi NNW 16.1 mph - N/A   Clear